Terminal Aerodrome Forecast
Issued by NWS

Home | Current Version | Previous Version | Text Only | Print | Product List | Glossary On
Versions: 1 2 3 4 5 6 7 8 9 10 11 12 13 14 15 16 17 18 19 20 21 22 23 24 25 26 27 28 29 30 31 32 33 34 35 36 37 38 39 40 41 42 43 44 45 46 47 48 49 50
000
FTUS41 KCTP 151740
TAFBFD
TAF
KBFD 151740Z 1518/1618 20007KT P6SM VCSH OVC025
     FM152200 21008KT 4SM -SHSN OVC025
     FM160300 26010G20KT 3SM -SHSN BKN015 OVC025
     FM161200 27011G18KT 2SM -SHSN OVC008=

USA.gov is the U.S. government's official web portal to all federal, state and local government web resources and services.